{"data":{"norad_id":60356,"intl_designator":"2024-138B","name":"STARLINK-32278","alt_names":[],"object_type":"PAYLOAD","status":"ACTIVE","operator":null,"country":"US","launch_date":"2024-08-04","launch_site_code":"AFWTR","launch_vehicle":null,"mission":null,"orbit_class":"UNKNOWN","rcs_meters":null,"size_class":null,"mass_kg":null,"dimensions":null,"purposes":["comms"],"wikipedia_slug":null,"has_3d_model":false,"image_url":null,"decayed_at":null,"tle_current":{"epoch":"2026-05-25T04:17:28.594752Z","epoch_age_seconds":62837,"freshness":"FRESH","line1":"1 60356U 24138B   26145.17880318  .00000003  00000+0  12240-4 0  9997","line2":"2 60356  53.1615 314.6505 0001117  99.3041 260.8086 15.30191377102339","mean_motion":15.30191377,"eccentricity":0.0001117,"inclination_deg":53.1615,"raan_deg":314.6505,"arg_perigee_deg":99.3041,"mean_anomaly_deg":260.8086,"bstar":1.224e-5,"rev_number":10233,"period_min":94.105876012919,"perigee_km":474.47529396185,"apogee_km":476.006338566,"semimajor_km":6853.3778162639,"source":"CELESTRAK","updated_at":"2026-05-25T13:38:19.237899Z"}}}